Location: Kalberh�ni
(46.4610°N, 7.2453°E)
Time: 17:43:15
(UTC+00:00)

Meteor 2-1 Rocket - Pass Details

Date: 28 October 2021
Orbit: 830 x 906 km, 81.3° (Epoch: 28 November)

Event Time Altitude Azimuth Distance (km) Brightness Sun altitude
Rises 19:08:11 0° 198° (SSW) 3,411 7.4 -29.1°
Reaches altitude 10° 19:10:38 10° 201° (SSW) 2,469 6.7 -29.5°
Maximum altitude 19:16:10 65° 283° (WNW) 925 4.5 -30.4°
Drops below altitude 10° 19:21:41 10° 6° (N) 2,453 6.7 -31.3°
Sets 19:24:08 0° 9° (N) 3,388 7.4 -31.8°
